TimeMST,TemperatureF,Dew PointF,Humidity,Sea Level PressureIn,VisibilityMPH,Wind Direction,Wind SpeedMPH,Gust SpeedMPH,PrecipitationIn,Events,Conditions,WindDirDegrees,DateUTC
12:58 AM,37.2,27.1,67,30.03,10.0,North,5.8,-,N/A,,Clear,350,2012-12-03 07:58:00
1:58 AM,36.1,26.2,67,30.06,10.0,Calm,Calm,-,N/A,,Clear,10,2012-12-03 08:58:00
2:58 AM,35.4,25.2,66,30.09,10.0,WNW,5.8,-,N/A,,Clear,300,2012-12-03 09:58:00
3:13 AM,35.6,26.6,70,30.15,10.0,WNW,6.9,-,N/A,,Mostly Cloudy,290,2012-12-03 10:13:00
3:58 AM,34.2,27.5,77,30.11,10.0,SSE,4.6,-,N/A,,Overcast,150,2012-12-03 10:58:00
4:33 AM,32.0,28.4,87,30.09,10.0,SE,6.9,-,N/A,,Scattered Clouds,140,2012-12-03 11:33:00
4:58 AM,33.3,27.3,79,30.09,10.0,ESE,6.9,-,N/A,,Partly Cloudy,110,2012-12-03 11:58:00
5:58 AM,34.5,24.8,68,30.12,10.0,SSE,5.8,-,N/A,,Clear,160,2012-12-03 12:58:00
6:58 AM,33.6,24.3,69,30.14,10.0,East,5.8,-,N/A,,Clear,100,2012-12-03 13:58:00
7:58 AM,32.5,24.8,73,30.19,10.0,East,4.6,-,N/A,,Clear,100,2012-12-03 14:58:00
8:58 AM,34.0,25.9,72,30.21,10.0,ESE,5.8,-,N/A,,Clear,110,2012-12-03 15:58:00
9:58 AM,36.9,26.6,66,30.20,10.0,ESE,8.1,-,N/A,,Clear,120,2012-12-03 16:58:00
10:58 AM,38.5,28.0,66,30.23,10.0,East,3.5,-,N/A,,Clear,100,2012-12-03 17:58:00
11:58 AM,40.1,27.7,61,30.24,10.0,Calm,Calm,-,N/A,,Mostly Cloudy,10,2012-12-03 18:58:00
12:48 PM,41.0,28.4,61,30.23,10.0,SSE,5.8,-,N/A,,Scattered Clouds,160,2012-12-03 19:48:00
12:58 PM,41.0,26.6,57,30.22,10.0,SE,6.9,-,N/A,,Partly Cloudy,130,2012-12-03 19:58:00
1:58 PM,43.5,23.5,45,30.21,10.0,South,4.6,-,N/A,,Clear,190,2012-12-03 20:58:00
2:58 PM,44.2,22.1,42,30.22,10.0,WSW,3.5,-,N/A,,Clear,250,2012-12-03 21:58:00
3:58 PM,43.5,21.7,42,30.23,10.0,SSE,2.3,-,N/A,,Clear,160,2012-12-03 22:58:00
4:58 PM,40.1,25.0,55,30.26,10.0,SW,3.5,-,N/A,,Clear,220,2012-12-03 23:58:00
5:58 PM,39.7,21.7,49,30.27,10.0,North,1.2,-,N/A,,Clear,360,2012-12-04 00:58:00
6:58 PM,36.1,23.9,61,30.29,10.0,ESE,8.1,-,N/A,,Clear,110,2012-12-04 01:58:00
7:58 PM,35.4,24.4,64,30.31,10.0,ESE,11.5,-,N/A,,Clear,110,2012-12-04 02:58:00
8:58 PM,35.4,23.7,62,30.31,10.0,East,12.7,-,N/A,,Clear,100,2012-12-04 03:58:00
9:58 PM,34.9,23.5,63,30.29,10.0,ESE,12.7,-,N/A,,Clear,110,2012-12-04 04:58:00
10:58 PM,34.3,23.4,64,30.29,10.0,ESE,13.8,-,N/A,,Clear,110,2012-12-04 05:58:00
11:58 PM,33.8,23.4,66,30.29,10.0,ESE,13.8,-,N/A,,Clear,110,2012-12-04 06:58:00